ETH1415 HAAB-HECA

Flight info

Callsign ETH1415
Flight time 3h 16m
Altitude 40000
Route LABLA2A LABLA UT124 ALRAP/N0485F390 DCT KSL DCT PSD/N0483F400 P751 AST W8 CVO
Aircraft B77L/H-SDE1E2E3FGHIJ2J3J4J5M1RWXY/LB1D1

Departure

Time 2026-05-04 21:29
Airport Addis Ababa Bole International Airport (HAAB)

Arrival

Time 2026-05-05 00:46
Airport Cairo International Airport (HECA)
Time Latitude Longitude Altitude Speed Heading
2026-05-04 21:01 8.97964 38.79345 7550 ft 0 kts 164°
2026-05-04 21:21 8.97978 38.79341 7550 ft 4 kts 168°
2026-05-04 21:21 8.98005 38.79337 7551 ft 4 kts 178°
2026-05-04 21:21 8.98032 38.79339 7549 ft 4 kts 194°
2026-05-04 21:22 8.98055 38.79350 7554 ft 4 kts 234°
2026-05-04 21:22 8.98060 38.79358 7554 ft 0 kts 253°
2026-05-04 21:25 8.98059 38.79357 7551 ft 1 kts 253°
2026-05-04 21:25 8.98052 38.79333 7551 ft 6 kts 253°
2026-05-04 21:25 8.98034 38.79271 7551 ft 12 kts 253°
2026-05-04 21:25 8.98005 38.79173 7551 ft 17 kts 253°
2026-05-04 21:26 8.97965 38.79042 7549 ft 22 kts 253°
2026-05-04 21:26 8.97918 38.78885 7552 ft 25 kts 253°
2026-05-04 21:26 8.97879 38.78764 7550 ft 11 kts 236°
2026-05-04 21:26 8.97809 38.78751 7550 ft 11 kts 171°
2026-05-04 21:27 8.97736 38.78769 7552 ft 11 kts 163°
2026-05-04 21:27 8.97665 38.78792 7544 ft 11 kts 161°
2026-05-04 21:27 8.97599 38.78826 7545 ft 11 kts 130°
2026-05-04 21:27 8.97568 38.78895 7545 ft 11 kts 114°
2026-05-04 21:28 8.97536 38.78966 7541 ft 12 kts 111°
2026-05-04 21:28 8.97513 38.79050 7540 ft 13 kts 104°
2026-05-04 21:28 8.97490 38.79137 7539 ft 13 kts 107°
2026-05-04 21:28 8.97510 38.79302 7540 ft 46 kts 72°
2026-05-04 21:29 8.97675 38.79858 7550 ft 117 kts 73°
2026-05-04 21:29 8.97965 38.80848 7551 ft 174 kts 72°
2026-05-04 21:29 8.98344 38.82074 7891 ft 182 kts 74°
2026-05-04 21:29 8.98669 38.83302 8571 ft 180 kts 74°
2026-05-04 21:30 8.99002 38.84558 9076 ft 194 kts 74°
2026-05-04 21:30 8.99249 38.85474 9214 ft 213 kts 74°
2026-05-04 21:30 8.99811 38.87523 9873 ft 233 kts 73°
2026-05-04 21:30 9.00248 38.89120 10614 ft 238 kts 76°
2026-05-04 21:31 8.99290 38.92311 12099 ft 261 kts 133°
2026-05-04 21:31 8.98299 38.93058 12719 ft 267 kts 150°
2026-05-04 21:31 8.96492 38.93579 13630 ft 277 kts 176°
2026-05-04 21:32 8.94581 38.93231 14453 ft 284 kts 205°
2026-05-04 21:32 8.93029 38.91992 15249 ft 290 kts 234°
2026-05-04 21:32 8.92061 38.90168 15828 ft 305 kts 249°
2026-05-04 21:32 8.91269 38.88083 16046 ft 337 kts 250°
2026-05-04 21:33 8.90640 38.85726 16207 ft 361 kts 268°
2026-05-04 21:33 8.91018 38.83148 16424 ft 385 kts 294°
2026-05-04 21:33 8.92478 38.80812 16595 ft 402 kts 312°
2026-05-04 21:33 8.94351 38.78627 17050 ft 418 kts 313°
2026-05-04 21:34 8.96270 38.76373 17767 ft 427 kts 312°
2026-05-04 21:34 8.98199 38.74068 18567 ft 432 kts 311°
2026-05-04 21:34 9.00137 38.71719 19341 ft 436 kts 311°
2026-05-04 21:34 9.02076 38.69348 20096 ft 439 kts 311°
2026-05-04 21:35 9.04027 38.66956 20837 ft 443 kts 311°
2026-05-04 21:35 9.06102 38.64660 21399 ft 445 kts 321°
2026-05-04 21:35 9.08705 38.63053 21892 ft 443 kts 337°
2026-05-04 21:35 9.11567 38.61788 22364 ft 453 kts 337°
2026-05-04 21:36 9.14461 38.60482 23010 ft 457 kts 336°
2026-05-04 21:36 9.17357 38.59144 23725 ft 459 kts 336°
2026-05-04 21:36 9.20277 38.57776 24247 ft 464 kts 336°
2026-05-04 21:36 9.23221 38.56382 24751 ft 468 kts 335°
2026-05-04 21:37 9.26182 38.54972 25269 ft 471 kts 336°
2026-05-04 21:37 9.29124 38.53567 25804 ft 474 kts 335°
2026-05-04 21:37 9.32122 38.52136 26287 ft 478 kts 335°
2026-05-04 21:37 9.35149 38.50689 26758 ft 482 kts 335°
2026-05-04 21:38 9.38197 38.49234 27231 ft 486 kts 335°
2026-05-04 21:38 9.41272 38.47766 27729 ft 489 kts 335°
2026-05-04 21:38 9.44359 38.46292 28182 ft 493 kts 335°
2026-05-04 21:38 9.47473 38.44806 28619 ft 496 kts 335°
2026-05-04 21:39 9.50573 38.43326 29036 ft 500 kts 335°
2026-05-04 21:39 9.53739 38.41814 29446 ft 503 kts 334°
2026-05-04 21:39 9.56913 38.40298 29874 ft 506 kts 334°
2026-05-04 21:39 9.60112 38.38770 30289 ft 508 kts 334°
2026-05-04 21:40 9.63320 38.37236 30709 ft 508 kts 334°
2026-05-04 21:40 9.66473 38.35730 31210 ft 506 kts 334°
2026-05-04 21:40 9.69665 38.34204 31749 ft 505 kts 334°
2026-05-04 21:40 9.72841 38.32686 32297 ft 503 kts 334°
2026-05-04 21:41 9.76007 38.31172 32820 ft 502 kts 334°
2026-05-04 21:41 9.79167 38.29660 33366 ft 501 kts 334°
2026-05-04 21:41 9.82315 38.28154 33952 ft 498 kts 334°
2026-05-04 21:41 9.85414 38.26671 34471 ft 496 kts 334°
2026-05-04 21:42 9.88542 38.25174 34924 ft 496 kts 334°
2026-05-04 21:42 9.91670 38.23677 35330 ft 496 kts 334°
2026-05-04 21:42 9.94792 38.22182 35756 ft 496 kts 334°
2026-05-04 21:42 9.97911 38.20688 36159 ft 496 kts 334°
2026-05-04 21:43 10.01031 38.19193 36543 ft 495 kts 334°
2026-05-04 21:43 10.04138 38.17705 37121 ft 491 kts 334°
2026-05-04 21:43 10.07189 38.16242 37582 ft 490 kts 334°
2026-05-04 21:43 10.10274 38.14764 37926 ft 491 kts 334°
2026-05-04 21:44 10.13371 38.13279 38226 ft 493 kts 334°
2026-05-04 21:44 10.16477 38.11789 38594 ft 492 kts 334°
2026-05-04 21:44 10.19564 38.10308 39023 ft 490 kts 334°
2026-05-04 21:44 10.22645 38.08830 39433 ft 487 kts 335°
2026-05-04 21:45 10.25724 38.07353 39685 ft 489 kts 335°
2026-05-04 21:45 10.28762 38.05894 39940 ft 489 kts 335°
2026-05-04 21:45 10.31845 38.04414 40072 ft 492 kts 335°
2026-05-04 21:46 10.38055 38.01432 40097 ft 492 kts 335°
2026-05-04 21:46 10.44220 37.98470 40108 ft 488 kts 335°
2026-05-04 21:47 10.50342 37.95526 40129 ft 485 kts 335°
2026-05-04 21:47 10.56389 37.92606 40131 ft 484 kts 333°
2026-05-04 21:48 10.62290 37.89306 40135 ft 484 kts 329°
2026-05-04 21:48 10.68102 37.85821 40138 ft 485 kts 329°
2026-05-04 21:49 10.73909 37.82372 40129 ft 486 kts 329°
2026-05-04 21:49 10.79788 37.78933 40127 ft 487 kts 330°
2026-05-04 21:50 10.85649 37.75521 40126 ft 488 kts 330°
2026-05-04 21:50 10.91545 37.72088 40114 ft 488 kts 330°
2026-05-04 21:51 10.97451 37.68644 40106 ft 489 kts 329°
2026-05-04 21:51 11.03361 37.65195 40100 ft 489 kts 329°
2026-05-04 21:52 11.09279 37.61739 40098 ft 490 kts 329°
2026-05-04 21:52 11.15165 37.58301 40078 ft 489 kts 329°
2026-05-04 21:53 11.21071 37.54849 40073 ft 489 kts 329°
2026-05-04 21:53 11.26964 37.51403 40061 ft 488 kts 329°
2026-05-04 21:54 11.32848 37.47961 40072 ft 487 kts 329°
2026-05-04 21:54 11.38687 37.44543 40052 ft 486 kts 330°
2026-05-04 21:55 11.44535 37.41119 40048 ft 484 kts 329°
2026-05-04 21:55 11.50358 37.37707 40029 ft 482 kts 329°
2026-05-04 21:56 11.56176 37.34296 40032 ft 480 kts 330°
2026-05-04 21:56 11.61965 37.30913 40032 ft 479 kts 330°
2026-05-04 21:57 11.67822 37.27754 40018 ft 479 kts 332°
2026-05-04 21:57 11.73759 37.24654 40014 ft 479 kts 332°
2026-05-04 21:58 11.79692 37.21524 40002 ft 479 kts 332°
2026-05-04 21:58 11.85611 37.18371 40007 ft 480 kts 332°
2026-05-04 21:59 11.91533 37.15206 40009 ft 480 kts 332°
2026-05-04 21:59 11.97427 37.12055 40004 ft 481 kts 332°
2026-05-04 22:00 12.03361 37.08883 39995 ft 480 kts 332°
2026-05-04 22:00 12.09280 37.05717 39990 ft 480 kts 332°
2026-05-04 22:01 12.15188 37.02556 39973 ft 479 kts 332°
2026-05-04 22:01 12.21086 36.99398 39972 ft 478 kts 331°
2026-05-04 22:02 12.26980 36.96241 39959 ft 477 kts 331°
2026-05-04 22:02 12.32867 36.93087 39939 ft 477 kts 331°
2026-05-04 22:03 12.38719 36.89949 39932 ft 477 kts 331°
2026-05-04 22:03 12.44617 36.86784 39927 ft 478 kts 331°
2026-05-04 22:04 12.50512 36.83620 39893 ft 478 kts 331°
2026-05-04 22:04 12.56410 36.80452 39884 ft 479 kts 331°
2026-05-04 22:05 12.62278 36.77299 39884 ft 479 kts 331°
2026-05-04 22:05 12.68187 36.74122 39854 ft 479 kts 331°
2026-05-04 22:06 12.74111 36.70964 39855 ft 480 kts 332°
2026-05-04 22:06 12.80087 36.67884 39856 ft 481 kts 332°
2026-05-04 22:07 12.86066 36.64797 39832 ft 481 kts 332°
2026-05-04 22:07 12.92039 36.61695 39829 ft 481 kts 332°
2026-05-04 22:08 12.98011 36.58587 39836 ft 481 kts 332°
2026-05-04 22:08 13.03948 36.55493 39832 ft 481 kts 332°
2026-05-04 22:09 13.09917 36.52381 39819 ft 481 kts 332°
2026-05-04 22:09 13.15876 36.49273 39815 ft 480 kts 332°
2026-05-04 22:10 13.21847 36.46157 39815 ft 480 kts 332°
2026-05-04 22:10 13.27800 36.43049 39805 ft 480 kts 332°
2026-05-04 22:11 13.33752 36.39939 39808 ft 480 kts 331°
2026-05-04 22:11 13.39704 36.36827 39798 ft 480 kts 331°
2026-05-04 22:12 13.45647 36.33718 39783 ft 479 kts 331°
2026-05-04 22:12 13.51550 36.30629 39788 ft 479 kts 331°
2026-05-04 22:13 13.57487 36.27519 39790 ft 479 kts 331°
2026-05-04 22:13 13.63481 36.24521 39777 ft 479 kts 338°
2026-05-04 22:14 13.70013 36.23127 39781 ft 483 kts 355°
2026-05-04 22:14 13.76744 36.23385 39788 ft 485 kts
2026-05-04 22:15 13.83480 36.23893 39777 ft 486 kts
2026-05-04 22:15 13.90235 36.24365 39791 ft 486 kts
2026-05-04 22:16 13.96996 36.24794 39793 ft 487 kts
2026-05-04 22:16 14.03733 36.25205 39774 ft 488 kts
2026-05-04 22:17 14.10523 36.25620 39778 ft 488 kts
2026-05-04 22:17 14.17304 36.26037 39786 ft 488 kts
2026-05-04 22:18 14.24087 36.26456 39788 ft 488 kts
2026-05-04 22:18 14.30833 36.26873 39788 ft 488 kts
2026-05-04 22:19 14.37632 36.27293 39783 ft 488 kts
2026-05-04 22:19 14.43271 36.27642 39783 ft 488 kts
2026-05-04 22:20 14.50054 36.28061 39776 ft 488 kts
2026-05-04 22:20 14.56845 36.28481 39796 ft 489 kts
2026-05-04 22:21 14.63652 36.28903 39786 ft 489 kts
2026-05-04 22:21 14.70416 36.29322 39784 ft 489 kts
2026-05-04 22:22 14.77227 36.29744 39784 ft 490 kts
2026-05-04 22:22 14.84037 36.30167 39778 ft 490 kts
2026-05-04 22:23 14.90847 36.30590 39776 ft 490 kts
2026-05-04 22:23 14.97614 36.31010 39779 ft 490 kts
2026-05-04 22:24 15.04424 36.31434 39773 ft 490 kts
2026-05-04 22:24 15.11230 36.31857 39776 ft 489 kts
2026-05-04 22:25 15.18038 36.32281 39783 ft 489 kts
2026-05-04 22:25 15.24837 36.32704 39781 ft 489 kts
2026-05-04 22:26 15.31588 36.33125 39782 ft 489 kts
2026-05-04 22:26 15.38380 36.33549 39777 ft 488 kts
2026-05-04 22:27 15.45116 36.34540 39789 ft 490 kts 10°
2026-05-04 22:27 15.51786 36.36059 39782 ft 490 kts 11°
2026-05-04 22:28 15.58452 36.37597 39775 ft 490 kts 10°
2026-05-04 22:28 15.65080 36.39093 39792 ft 490 kts 10°
2026-05-04 22:29 15.71752 36.40579 39791 ft 490 kts 10°
2026-05-04 22:29 15.78428 36.42062 39786 ft 491 kts 10°
2026-05-04 22:30 15.85116 36.43549 39790 ft 491 kts 10°
2026-05-04 22:30 15.91798 36.45038 39783 ft 491 kts 10°
2026-05-04 22:31 15.98483 36.46529 39801 ft 491 kts 10°
2026-05-04 22:31 16.05175 36.48023 39802 ft 492 kts 10°
2026-05-04 22:32 16.11832 36.49509 39787 ft 492 kts 10°
2026-05-04 22:32 16.18544 36.51010 39786 ft 492 kts 10°
2026-05-04 22:33 16.25211 36.52501 39800 ft 493 kts 10°
2026-05-04 22:33 16.31928 36.54004 39803 ft 493 kts 10°
2026-05-04 22:34 16.38639 36.55507 39796 ft 493 kts 10°
2026-05-04 22:34 16.45362 36.57014 39807 ft 493 kts 10°
2026-05-04 22:35 16.52034 36.58510 39796 ft 493 kts 10°
2026-05-04 22:35 16.58740 36.60015 39801 ft 493 kts 10°
2026-05-04 22:36 16.65450 36.61522 39800 ft 492 kts 10°
2026-05-04 22:36 16.72152 36.63029 39804 ft 492 kts 10°
2026-05-04 22:37 16.78854 36.64536 39807 ft 492 kts 10°
2026-05-04 22:37 16.85545 36.66042 39811 ft 491 kts 10°
2026-05-04 22:38 16.92196 36.67540 39813 ft 491 kts 10°
2026-05-04 22:38 16.98872 36.69045 39815 ft 491 kts
2026-05-04 22:39 17.05554 36.70552 39816 ft 491 kts
2026-05-04 22:39 17.12236 36.72060 39823 ft 491 kts
2026-05-04 22:40 17.18939 36.73575 39825 ft 492 kts
2026-05-04 22:40 17.25646 36.75091 39834 ft 492 kts
2026-05-04 22:41 17.32303 36.76597 39828 ft 493 kts
2026-05-04 22:41 17.39009 36.78115 39825 ft 493 kts
2026-05-04 22:42 17.45721 36.79636 39840 ft 494 kts
2026-05-04 22:42 17.52444 36.81160 39830 ft 494 kts
2026-05-04 22:43 17.59164 36.82685 39839 ft 494 kts
2026-05-04 22:43 17.65859 36.84206 39840 ft 494 kts
2026-05-04 22:44 17.72584 36.85734 39840 ft 494 kts
2026-05-04 22:44 17.79316 36.87265 39854 ft 495 kts
2026-05-04 22:45 17.86062 36.88800 39863 ft 496 kts
2026-05-04 22:45 17.96169 36.91103 39871 ft 497 kts
2026-05-04 22:46 18.02936 36.92646 39877 ft 498 kts
2026-05-04 22:46 18.09735 36.94198 39884 ft 499 kts
2026-05-04 22:47 18.16528 36.95750 39892 ft 499 kts
2026-05-04 22:47 18.23323 36.97303 39902 ft 500 kts
2026-05-04 22:48 18.30089 36.98851 39916 ft 500 kts
2026-05-04 22:48 18.36907 37.00412 39914 ft 501 kts
2026-05-04 22:49 18.43715 37.01972 39918 ft 501 kts
2026-05-04 22:49 18.50540 37.03537 39929 ft 501 kts
2026-05-04 22:50 18.57373 37.05106 39928 ft 502 kts
2026-05-04 22:50 18.64170 37.06666 39923 ft 503 kts
2026-05-04 22:51 18.71021 37.08241 39932 ft 503 kts
2026-05-04 22:51 18.77875 37.09820 39934 ft 504 kts
2026-05-04 22:52 18.84696 37.11391 39931 ft 505 kts
2026-05-04 22:52 18.91579 37.12977 39928 ft 505 kts
2026-05-04 22:53 18.98459 37.14563 39922 ft 506 kts
2026-05-04 22:53 19.05348 37.16154 39923 ft 506 kts
2026-05-04 22:54 19.12191 37.17736 39918 ft 507 kts
2026-05-04 22:54 19.19095 37.19332 39920 ft 507 kts
2026-05-04 22:55 19.25992 37.20929 39912 ft 508 kts
2026-05-04 22:55 19.32900 37.22530 39919 ft 508 kts
2026-05-04 22:56 19.39767 37.23002 39919 ft 490 kts 345°
2026-05-04 22:56 19.43030 37.22063 39915 ft 482 kts 333°
2026-05-04 22:56 19.45971 37.20457 39904 ft 471 kts 321°
2026-05-04 22:57 19.51449 37.16621 39914 ft 473 kts 321°
2026-05-04 22:57 19.56952 37.12819 39920 ft 476 kts 322°
2026-05-04 22:58 19.62541 37.09014 39930 ft 478 kts 322°
2026-05-04 22:58 19.68154 37.05210 39917 ft 479 kts 322°
2026-05-04 22:59 19.73787 37.01392 39921 ft 480 kts 322°
2026-05-04 22:59 19.79386 36.97590 39929 ft 480 kts 321°
2026-05-04 23:00 19.85020 36.93762 39924 ft 479 kts 321°
2026-05-04 23:00 19.90635 36.89941 39922 ft 478 kts 321°
2026-05-04 23:01 19.96197 36.86156 39932 ft 476 kts 321°
2026-05-04 23:01 20.01773 36.82355 39937 ft 474 kts 321°
2026-05-04 23:02 20.07325 36.78567 39934 ft 473 kts 321°
2026-05-04 23:02 20.12832 36.74807 39934 ft 473 kts 321°
2026-05-04 23:03 20.18369 36.71024 39942 ft 472 kts 321°
2026-05-04 23:03 20.23903 36.67239 39939 ft 472 kts 321°
2026-05-04 23:04 20.29430 36.63455 39938 ft 472 kts 321°
2026-05-04 23:04 20.34921 36.59693 39935 ft 472 kts 321°
2026-05-04 23:05 20.40445 36.55906 39933 ft 472 kts 321°
2026-05-04 23:05 20.45977 36.52110 39925 ft 472 kts 321°
2026-05-04 23:06 20.51507 36.48312 39940 ft 472 kts 320°
2026-05-04 23:06 20.57029 36.44515 39931 ft 472 kts 320°
2026-05-04 23:07 20.61622 36.41355 39917 ft 472 kts 320°
2026-05-04 23:07 20.67136 36.37557 39917 ft 472 kts 320°
2026-05-04 23:08 20.72655 36.33754 39918 ft 471 kts 320°
2026-05-04 23:08 20.78137 36.29973 39921 ft 471 kts 320°
2026-05-04 23:09 20.83644 36.26172 39926 ft 471 kts 320°
2026-05-04 23:09 20.89152 36.22366 39928 ft 470 kts 320°
2026-05-04 23:10 20.94651 36.18561 39936 ft 470 kts 319°
2026-05-04 23:10 21.00108 36.14782 39930 ft 470 kts 320°
2026-05-04 23:11 21.05596 36.10981 39934 ft 468 kts 319°
2026-05-04 23:11 21.11070 36.07182 39938 ft 469 kts 319°
2026-05-04 23:12 21.16543 36.03380 39937 ft 469 kts 319°
2026-05-04 23:12 21.21987 35.99597 39948 ft 469 kts 319°
2026-05-04 23:13 21.27471 35.95782 39953 ft 469 kts 319°
2026-05-04 23:13 21.32952 35.91966 39950 ft 469 kts 319°
2026-05-04 23:14 21.38428 35.88151 39948 ft 469 kts 319°
2026-05-04 23:14 21.43899 35.84336 39950 ft 468 kts 319°
2026-05-04 23:15 21.49325 35.80548 39950 ft 468 kts 319°
2026-05-04 23:15 21.54784 35.76734 39953 ft 467 kts 319°
2026-05-04 23:16 21.60232 35.72924 39963 ft 467 kts 319°
2026-05-04 23:16 21.65683 35.69108 39964 ft 467 kts 319°
2026-05-04 23:17 21.71089 35.65319 39960 ft 466 kts 319°
2026-05-04 23:17 21.76516 35.61514 39968 ft 465 kts 318°
2026-05-04 23:18 21.81944 35.57702 39956 ft 465 kts 318°
2026-05-04 23:18 21.87371 35.53891 39986 ft 465 kts 318°
2026-05-04 23:19 21.92795 35.50073 39996 ft 464 kts 318°
2026-05-04 23:19 21.98179 35.46286 39976 ft 465 kts 318°
2026-05-04 23:20 22.03616 35.42475 39982 ft 466 kts 318°
2026-05-04 23:20 22.09077 35.38685 39975 ft 467 kts 319°
2026-05-04 23:21 22.14544 35.34891 39986 ft 467 kts 319°
2026-05-04 23:21 22.20013 35.31088 40006 ft 468 kts 318°
2026-05-04 23:22 22.25489 35.27269 39993 ft 469 kts 318°
2026-05-04 23:22 22.30966 35.23448 39991 ft 468 kts 318°
2026-05-04 23:23 22.36429 35.19634 39982 ft 467 kts 318°
2026-05-04 23:23 22.41842 35.15851 39982 ft 465 kts 318°
2026-05-04 23:24 22.47282 35.12044 39978 ft 464 kts 318°
2026-05-04 23:24 22.52710 35.08243 40004 ft 464 kts 318°
2026-05-04 23:25 22.58100 35.04463 39980 ft 463 kts 317°
2026-05-04 23:25 22.63516 35.00662 39972 ft 464 kts 317°
2026-05-04 23:26 22.68944 34.96849 39967 ft 464 kts 317°
2026-05-04 23:26 22.74356 34.93045 39967 ft 464 kts 317°
2026-05-04 23:27 22.79770 34.89236 39971 ft 463 kts 317°
2026-05-04 23:27 22.85143 34.85451 39998 ft 463 kts 317°
2026-05-04 23:28 22.90556 34.81634 39971 ft 463 kts 317°
2026-05-04 23:28 22.95965 34.77816 39966 ft 463 kts 317°
2026-05-04 23:29 23.01373 34.73996 39967 ft 463 kts 317°
2026-05-04 23:29 23.06780 34.70174 39982 ft 463 kts 317°
2026-05-04 23:30 23.12138 34.66381 39975 ft 463 kts 317°
2026-05-04 23:30 23.17536 34.62556 40008 ft 462 kts 317°
2026-05-04 23:31 23.22934 34.58727 39990 ft 462 kts 317°
2026-05-04 23:31 23.28285 34.54937 39974 ft 461 kts 317°
2026-05-04 23:32 23.33653 34.51116 39972 ft 461 kts 317°
2026-05-04 23:32 23.39021 34.47294 39997 ft 461 kts 317°
2026-05-04 23:33 23.44401 34.43468 39980 ft 460 kts 317°
2026-05-04 23:33 23.49761 34.39646 39983 ft 460 kts 317°
2026-05-04 23:34 23.55094 34.35840 39981 ft 460 kts 317°
2026-05-04 23:34 23.60462 34.32007 39984 ft 461 kts 317°
2026-05-04 23:35 23.65825 34.28174 39983 ft 460 kts 317°
2026-05-04 23:35 23.71180 34.24342 39985 ft 460 kts 317°
2026-05-04 23:36 23.76504 34.20527 40001 ft 460 kts 317°
2026-05-04 23:36 23.81862 34.16686 40016 ft 461 kts 317°
2026-05-04 23:37 23.87234 34.12857 39992 ft 461 kts 317°
2026-05-04 23:37 23.92613 34.09034 39985 ft 460 kts 317°
2026-05-04 23:38 23.97977 34.05215 39983 ft 459 kts 317°
2026-05-04 23:38 24.03329 34.01397 39990 ft 458 kts 317°
2026-05-04 23:39 24.08668 33.97583 39994 ft 458 kts 317°
2026-05-04 23:39 24.13998 33.93771 40047 ft 457 kts 317°
2026-05-04 23:40 24.19326 33.89957 40001 ft 457 kts 317°
2026-05-04 23:40 24.24648 33.86144 39993 ft 456 kts 317°
2026-05-04 23:41 24.29916 33.82366 39989 ft 455 kts 317°
2026-05-04 23:41 24.35202 33.78572 40003 ft 454 kts 317°
2026-05-04 23:42 24.40484 33.74774 40004 ft 453 kts 317°
2026-05-04 23:42 24.45768 33.70972 40029 ft 454 kts 317°
2026-05-04 23:43 24.51027 33.67183 40014 ft 454 kts 317°
2026-05-04 23:43 24.56317 33.63370 39998 ft 454 kts 317°
2026-05-04 23:44 24.61598 33.59560 40001 ft 454 kts 317°
2026-05-04 23:44 24.66887 33.55740 40001 ft 453 kts 317°
2026-05-04 23:45 24.72126 33.51952 40000 ft 453 kts 317°
2026-05-04 23:45 24.77388 33.48143 40008 ft 453 kts 317°
2026-05-04 23:46 24.82654 33.44326 40015 ft 453 kts 317°
2026-05-04 23:46 24.87912 33.40513 40007 ft 452 kts 317°
2026-05-04 23:47 24.93164 33.36698 40005 ft 452 kts 317°
2026-05-04 23:47 24.98410 33.32886 40013 ft 451 kts 317°
2026-05-04 23:48 25.03654 33.29069 40015 ft 451 kts 317°
2026-05-04 23:48 25.08865 33.25273 40017 ft 451 kts 317°
2026-05-04 23:49 25.14119 33.21442 40019 ft 452 kts 317°
2026-05-04 23:49 25.19370 33.17608 40018 ft 452 kts 317°
2026-05-04 23:50 25.24615 33.13777 40025 ft 451 kts 317°
2026-05-04 23:50 25.29862 33.09949 40018 ft 451 kts 317°
2026-05-04 23:51 25.35066 33.06148 40019 ft 451 kts 317°
2026-05-04 23:51 25.40308 33.02314 40025 ft 450 kts 317°
2026-05-04 23:52 25.45538 32.98484 40028 ft 450 kts 316°
2026-05-04 23:52 25.50753 32.94660 40031 ft 449 kts 316°
2026-05-04 23:53 25.55966 32.90834 40034 ft 449 kts 316°
2026-05-04 23:53 25.61176 32.87006 40038 ft 449 kts 316°
2026-05-04 23:54 25.65496 32.83828 40035 ft 448 kts 316°
2026-05-04 23:54 25.71525 32.79379 40045 ft 445 kts 315°
2026-05-04 23:55 25.75440 32.75805 40068 ft 434 kts 307°
2026-05-04 23:56 25.81346 32.68412 40037 ft 424 kts 301°
2026-05-04 23:56 25.85098 32.63364 40051 ft 424 kts 301°
2026-05-04 23:57 25.88865 32.58311 40045 ft 425 kts 301°
2026-05-04 23:57 25.92643 32.53258 40045 ft 425 kts 301°
2026-05-04 23:58 25.96421 32.48206 40055 ft 425 kts 301°
2026-05-04 23:58 26.00175 32.43183 40053 ft 425 kts 301°
2026-05-04 23:59 26.03955 32.38119 40066 ft 425 kts 301°
2026-05-04 23:59 26.07731 32.33055 40081 ft 425 kts 301°
2026-05-05 00:00 26.11504 32.27986 40077 ft 425 kts 301°
2026-05-05 00:00 26.15252 32.22949 40082 ft 425 kts 301°
2026-05-05 00:01 26.19018 32.17882 40083 ft 424 kts 301°
2026-05-05 00:01 26.22779 32.12815 40073 ft 423 kts 301°
2026-05-05 00:02 26.26525 32.07764 40077 ft 422 kts 301°
2026-05-05 00:02 26.30233 32.02756 40083 ft 421 kts 301°
2026-05-05 00:03 26.33969 31.97704 40084 ft 420 kts 301°
2026-05-05 00:03 26.37666 31.92701 40092 ft 420 kts 301°
2026-05-05 00:04 26.41380 31.87669 40097 ft 420 kts 301°
2026-05-05 00:04 26.45100 31.82622 40103 ft 421 kts 301°
2026-05-05 00:05 26.48819 31.77571 40109 ft 421 kts 301°
2026-05-05 00:05 26.52540 31.72513 40137 ft 422 kts 301°
2026-05-05 00:06 26.56264 31.67444 40117 ft 422 kts 301°
2026-05-05 00:06 26.59993 31.62364 40117 ft 423 kts 301°
2026-05-05 00:07 26.63696 31.57314 40118 ft 423 kts 301°
2026-05-05 00:07 26.67420 31.52227 40107 ft 423 kts 301°
2026-05-05 00:08 26.71144 31.47137 40119 ft 423 kts 301°
2026-05-05 00:08 26.74863 31.42046 40124 ft 422 kts 301°
2026-05-05 00:09 26.78585 31.36945 40130 ft 422 kts 301°
2026-05-05 00:09 26.82287 31.31867 40126 ft 422 kts 301°
2026-05-05 00:10 26.85996 31.26772 40140 ft 422 kts 301°
2026-05-05 00:10 26.89710 31.21664 40150 ft 422 kts 302°
2026-05-05 00:11 26.93420 31.16557 40155 ft 422 kts 301°
2026-05-05 00:11 26.97134 31.11438 40153 ft 423 kts 301°
2026-05-05 00:12 27.01156 31.06609 40152 ft 437 kts 317°
2026-05-05 00:12 27.03912 31.05008 40167 ft 454 kts 329°
2026-05-05 00:12 27.06979 31.03966 40164 ft 469 kts 339°
2026-05-05 00:12 27.10300 31.03693 40156 ft 489 kts 353°
2026-05-05 00:13 27.13711 31.04017 40167 ft 494 kts 356°
2026-05-05 00:13 27.20533 31.04954 40186 ft 498 kts 357°
2026-05-05 00:14 27.27426 31.05868 40161 ft 498 kts 356°
2026-05-05 00:14 27.34320 31.06672 40145 ft 497 kts 356°
2026-05-05 00:15 27.41174 31.07427 40144 ft 497 kts 355°
2026-05-05 00:15 27.48058 31.08185 40174 ft 497 kts 356°
2026-05-05 00:16 27.54940 31.08949 40140 ft 496 kts 356°
2026-05-05 00:16 27.61820 31.09719 40132 ft 495 kts 356°
2026-05-05 00:17 27.68636 31.10482 40136 ft 494 kts 356°
2026-05-05 00:17 27.75488 31.11248 40144 ft 494 kts 356°
2026-05-05 00:18 27.82337 31.12016 40134 ft 494 kts 356°
2026-05-05 00:18 27.89194 31.12786 40136 ft 494 kts 356°
2026-05-05 00:19 27.95993 31.13549 40174 ft 494 kts 356°
2026-05-05 00:19 28.02843 31.14320 40136 ft 494 kts 356°
2026-05-05 00:20 28.09699 31.15091 40134 ft 494 kts 356°
2026-05-05 00:20 28.16548 31.15849 40135 ft 494 kts 356°
2026-05-05 00:21 28.23388 31.16604 40144 ft 494 kts 356°
2026-05-05 00:21 28.30231 31.17363 40130 ft 494 kts 356°
2026-05-05 00:22 28.37034 31.18120 40127 ft 494 kts 356°
2026-05-05 00:22 28.43885 31.18883 40134 ft 494 kts 356°
2026-05-05 00:23 28.50743 31.19647 40136 ft 494 kts 356°
2026-05-05 00:23 28.57521 31.20406 39810 ft 491 kts 356°
2026-05-05 00:23 28.60929 31.20786 39502 ft 492 kts 356°
2026-05-05 00:24 28.64344 31.21166 39159 ft 493 kts 356°
2026-05-05 00:24 28.67767 31.21548 38342 ft 495 kts 356°
2026-05-05 00:24 28.71190 31.21934 37539 ft 494 kts 356°
2026-05-05 00:24 28.74609 31.22338 36685 ft 494 kts 356°
2026-05-05 00:25 28.78025 31.22753 35840 ft 493 kts 356°
2026-05-05 00:25 28.81441 31.23172 34876 ft 495 kts 356°
2026-05-05 00:25 28.84872 31.23591 33821 ft 496 kts 356°
2026-05-05 00:25 28.88274 31.24006 32680 ft 497 kts 356°
2026-05-05 00:26 28.91719 31.24426 31524 ft 498 kts 356°
2026-05-05 00:26 28.95163 31.24845 30619 ft 495 kts 356°
2026-05-05 00:26 28.98564 31.25264 29758 ft 489 kts 356°
2026-05-05 00:26 29.01935 31.25678 28896 ft 483 kts 356°
2026-05-05 00:27 29.05258 31.26086 28137 ft 476 kts 356°
2026-05-05 00:27 29.08529 31.26485 27377 ft 469 kts 356°
2026-05-05 00:27 29.11758 31.26878 26653 ft 464 kts 356°
2026-05-05 00:27 29.14951 31.27265 25947 ft 458 kts 356°
2026-05-05 00:28 29.18114 31.27648 25274 ft 454 kts 358°
2026-05-05 00:28 29.21245 31.28026 24545 ft 450 kts 358°
2026-05-05 00:28 29.24311 31.28398 23844 ft 447 kts 358°
2026-05-05 00:28 29.27398 31.28774 23049 ft 444 kts 358°
2026-05-05 00:29 29.30459 31.29149 22326 ft 439 kts 358°
2026-05-05 00:29 29.33485 31.29519 21622 ft 434 kts 358°
2026-05-05 00:29 29.36469 31.29884 20948 ft 429 kts 358°
2026-05-05 00:29 29.39417 31.30245 20295 ft 424 kts 358°
2026-05-05 00:30 29.42340 31.30602 19646 ft 420 kts 358°
2026-05-05 00:30 29.45239 31.30956 18993 ft 416 kts 358°
2026-05-05 00:30 29.48075 31.31303 18333 ft 413 kts 358°
2026-05-05 00:30 29.50929 31.31650 17607 ft 410 kts 359°
2026-05-05 00:31 29.53749 31.31995 16930 ft 405 kts 359°
2026-05-05 00:31 29.56537 31.32336 16289 ft 400 kts 359°
2026-05-05 00:31 29.59296 31.32674 15653 ft 395 kts 359°
2026-05-05 00:31 29.62019 31.33007 15030 ft 391 kts 359°
2026-05-05 00:32 29.64709 31.33336 14416 ft 387 kts 359°
2026-05-05 00:32 29.67372 31.33661 13784 ft 383 kts 359°
2026-05-05 00:32 29.69974 31.33979 13111 ft 379 kts 359°
2026-05-05 00:32 29.72582 31.34298 12481 ft 373 kts 360°
2026-05-05 00:33 29.75145 31.34613 11876 ft 368 kts
2026-05-05 00:33 29.77678 31.34924 11283 ft 363 kts
2026-05-05 00:33 29.80166 31.35230 10907 ft 352 kts
2026-05-05 00:33 29.82550 31.35527 10739 ft 337 kts
2026-05-05 00:34 29.84831 31.35811 10594 ft 322 kts 360°
2026-05-05 00:34 29.87004 31.36080 10488 ft 306 kts 360°
2026-05-05 00:34 29.89053 31.36333 10389 ft 292 kts 359°
2026-05-05 00:34 29.91029 31.36576 10311 ft 278 kts 359°
2026-05-05 00:35 29.92908 31.36807 10219 ft 265 kts 359°
2026-05-05 00:35 29.94704 31.37028 10123 ft 253 kts 358°
2026-05-05 00:35 29.96422 31.37238 9936 ft 243 kts 358°
2026-05-05 00:35 29.98086 31.37439 9650 ft 238 kts 358°
2026-05-05 00:36 29.99707 31.37635 9290 ft 236 kts 358°
2026-05-05 00:36 30.01340 31.37833 8909 ft 235 kts 359°
2026-05-05 00:36 30.02960 31.38031 8531 ft 233 kts 359°
2026-05-05 00:36 30.04572 31.38230 8171 ft 231 kts 359°
2026-05-05 00:37 30.06169 31.38427 7813 ft 230 kts 359°
2026-05-05 00:37 30.07744 31.38678 7428 ft 229 kts 10°
2026-05-05 00:37 30.09123 31.39631 7208 ft 230 kts 38°
2026-05-05 00:37 30.10223 31.41021 7194 ft 245 kts 50°
2026-05-05 00:38 30.11080 31.42797 6953 ft 258 kts 60°
2026-05-05 00:38 30.11832 31.44681 6680 ft 257 kts 62°
2026-05-05 00:38 30.12554 31.46521 6405 ft 252 kts 62°
2026-05-05 00:38 30.13281 31.48342 6127 ft 247 kts 61°
2026-05-05 00:39 30.14000 31.50117 5865 ft 241 kts 61°
2026-05-05 00:39 30.14706 31.51841 5620 ft 235 kts 60°
2026-05-05 00:39 30.15407 31.53536 5351 ft 233 kts 60°
2026-05-05 00:39 30.16110 31.55222 5095 ft 232 kts 60°
2026-05-05 00:40 30.16808 31.56896 4858 ft 230 kts 60°
2026-05-05 00:40 30.17502 31.58555 4619 ft 228 kts 60°
2026-05-05 00:40 30.18190 31.60201 4368 ft 227 kts 60°
2026-05-05 00:40 30.18875 31.61840 4136 ft 225 kts 60°
2026-05-05 00:41 30.19768 31.63226 3858 ft 206 kts 25°
2026-05-05 00:41 30.21027 31.63502 3846 ft 180 kts 350°
2026-05-05 00:41 30.22166 31.63029 3731 ft 172 kts 324°
2026-05-05 00:41 30.22954 31.61980 3653 ft 176 kts 296°
2026-05-05 00:42 30.23142 31.60586 3574 ft 178 kts 267°
2026-05-05 00:42 30.22938 31.59666 3524 ft 181 kts 249°
2026-05-05 00:42 30.22162 31.58504 3446 ft 185 kts 232°
2026-05-05 00:42 30.21289 31.57364 3184 ft 192 kts 233°
2026-05-05 00:43 30.20433 31.56231 2955 ft 180 kts 233°
2026-05-05 00:43 30.19611 31.55134 2763 ft 181 kts 234°
2026-05-05 00:43 30.18780 31.54020 2517 ft 184 kts 234°
2026-05-05 00:43 30.17945 31.52902 2265 ft 183 kts 234°
2026-05-05 00:44 30.17132 31.51817 1982 ft 170 kts 234°
2026-05-05 00:44 30.16373 31.50801 1532 ft 160 kts 234°
2026-05-05 00:44 30.15689 31.49899 1348 ft 141 kts 233°
2026-05-05 00:44 30.15063 31.49069 1249 ft 139 kts 233°
2026-05-05 00:45 30.14436 31.48216 1101 ft 145 kts 233°
2026-05-05 00:45 30.13774 31.47330 993 ft 145 kts 231°
2026-05-05 00:45 30.13118 31.46449 833 ft 143 kts 232°
2026-05-05 00:45 30.12463 31.45577 637 ft 142 kts 231°
2026-05-05 00:46 30.11815 31.44711 459 ft 138 kts 231°
2026-05-05 00:46 30.11253 31.43952 454 ft 110 kts 229°
2026-05-05 00:46 30.10927 31.43506 453 ft 38 kts 236°
2026-05-05 00:46 30.10837 31.43223 454 ft 29 kts 255°
2026-05-05 00:47 30.10763 31.43006 454 ft 29 kts 232°
2026-05-05 00:47 30.10683 31.42898 454 ft 16 kts 229°
2026-05-05 00:47 30.10607 31.42797 454 ft 17 kts 229°
2026-05-05 00:47 30.10525 31.42691 454 ft 18 kts 228°
2026-05-05 00:48 30.10437 31.42580 454 ft 19 kts 227°
2026-05-05 00:48 30.10351 31.42458 454 ft 20 kts 231°
2026-05-05 00:48 30.10262 31.42337 454 ft 20 kts 228°
2026-05-05 00:48 30.10170 31.42218 454 ft 20 kts 227°
2026-05-05 00:49 30.10081 31.42099 454 ft 20 kts 229°
2026-05-05 00:49 30.10017 31.41991 454 ft 11 kts 261°
2026-05-05 00:49 30.10024 31.41906 454 ft 11 kts 273°
2026-05-05 00:49 30.09997 31.41828 454 ft 11 kts 232°
2026-05-05 00:50 30.09940 31.41744 454 ft 18 kts 233°
2026-05-05 00:50 30.09895 31.41554 454 ft 29 kts 259°
2026-05-05 00:50 30.09857 31.41325 455 ft 29 kts 259°
2026-05-05 00:50 30.09820 31.41095 453 ft 29 kts 259°
2026-05-05 00:51 30.09784 31.40865 437 ft 29 kts 260°
2026-05-05 00:51 30.09800 31.40728 431 ft 17 kts 316°
2026-05-05 00:51 30.09901 31.40619 414 ft 22 kts 316°
2026-05-05 00:51 30.10032 31.40494 405 ft 27 kts 322°
2026-05-05 00:52 30.10166 31.40366 396 ft 13 kts 319°
2026-05-05 00:52 30.10222 31.40310 391 ft 12 kts 319°
2026-05-05 00:52 30.10288 31.40243 393 ft 13 kts 318°
2026-05-05 00:52 30.10356 31.40176 392 ft 13 kts 321°
2026-05-05 00:53 30.10420 31.40116 390 ft 8 kts 321°
2026-05-05 00:53 30.10457 31.40076 392 ft 7 kts 285°
2026-05-05 00:53 30.10435 31.40037 393 ft 6 kts 224°
2026-05-05 00:53 30.10384 31.39980 393 ft 15 kts 224°
2026-05-05 00:54 30.10302 31.39873 393 ft 19 kts 230°
2026-05-05 00:54 30.10217 31.39758 392 ft 19 kts 230°
2026-05-05 00:54 30.10138 31.39650 391 ft 13 kts 230°
2026-05-05 00:54 30.10139 31.39577 394 ft 10 kts 311°
2026-05-05 00:55 30.10199 31.39586 393 ft 10 kts 45°
2026-05-05 00:55 30.10248 31.39646 391 ft 11 kts 49°
2026-05-05 00:55 30.10298 31.39713 390 ft 11 kts 49°
2026-05-05 00:55 30.10354 31.39788 385 ft 14 kts 49°
2026-05-05 00:56 30.10416 31.39871 384 ft 14 kts 49°
2026-05-05 00:56 30.10479 31.39953 384 ft 14 kts 48°
2026-05-05 00:56 30.10542 31.40035 383 ft 14 kts 48°
2026-05-05 00:56 30.10605 31.40117 388 ft 14 kts 48°
2026-05-05 00:57 30.10668 31.40197 389 ft 14 kts 47°
2026-05-05 00:57 30.10728 31.40282 390 ft 14 kts 54°
2026-05-05 00:57 30.10791 31.40377 387 ft 15 kts 50°
2026-05-05 00:57 30.10846 31.40446 385 ft 11 kts 34°
2026-05-05 00:58 30.10912 31.40425 380 ft 8 kts 301°
2026-05-05 00:58 30.10936 31.40358 376 ft 11 kts 290°
2026-05-05 00:58 30.10961 31.40296 375 ft 6 kts 320°
2026-05-05 00:58 30.11005 31.40295 376 ft 6 kts 10°
2026-05-05 00:59 30.11035 31.40305 376 ft 0 kts 16°